[[{"header":{"parameterUnit":"m.s-1","parameterCategory":1,"la1":30.2991,"la2":30.254,"lo1":-89.0895,"lo2":-89.0444,"dy":0.0017,"dx":0.0017,"nx":28,"ny":28,"refTime":"2024-06-27T03:00:00:Z","depth":0,"parameterNumber":2,"parameterNumberName":"U-component_of_WINDS"},"data":[0,0,0,0,0,0,0,0,0,0,0,0,0,0,0,0,0,0,0,0,0,0,0,0,0,0,0,0,0,0,0,0,0,0,0,0,0,0,0,0,0,0,0,0,0,0,0,0,0,0,0,0,0,0,0,0,0,0,6.1112,6.1113,0,6.1199,6.12,6.1201,6.1108,6.1104,6.1101,6.1097,6.1189,6.1194,6.12,0,0,0,0,0,0,0,0,0,0,0,0,0,6.0868,6.0873,6.1112,6.1113,6.1114,6.1199,6.12,6.1201,6.1108,6.1104,6.11,6.1096,6.1187,6.1193,6.12,0,0,0,0,0,0,0,0,0,0,0,0,0,6.0967,6.0875,6.1112,6.1078,6.1076,6.1199,6.12,6.1202,6.1109,6.1104,6.1099,6.1094,6.1184,6.1193,6.1201,6.1363,0,0,6.1228,6.1232,0,0,0,0,0,0,0,0,6.0961,6.0976,6.1082,6.1081,6.1078,6.1137,6.1148,6.1256,6.1111,6.1097,6.1097,6.1091,6.1176,6.1185,6.1213,6.1367,6.1371,6.1229,6.1234,6.1238,6.124,0,0,0,0,0,0,0,6.0954,6.0971,6.1146,6.1084,6.1081,6.1059,6.1067,6.1168,6.1166,6.1098,6.1091,6.1102,6.1174,6.1205,6.1215,6.1372,6.1228,6.1236,6.1241,6.1245,6.1664,6.167,0,0,0,0,0,0,6.0951,6.0966,6.1144,6.1149,6.1005,6.1068,6.1077,6.1124,6.1164,6.1165,6.1107,6.1098,6.1193,6.1205,6.1217,6.141,6.1238,6.1246,6.1251,6.1659,6.1666,6.1672,0,0,0,0,0,0,6.0946,6.0968,6.114,6.1056,6.1076,6.1078,6.1131,6.1128,6.1159,6.1171,6.1171,6.1139,6.1189,6.1205,6.1327,6.1411,6.125,6.1257,6.1652,6.1661,6.1669,6.1795,0,0,0,0,0,0,6.094,6.0967,6.1027,6.1058,6.1081,6.1248,6.1136,6.1134,6.1174,6.1163,6.1201,6.1202,6.1186,6.1315,6.1336,6.142,6.1264,6.1644,6.1656,6.1666,6.1783,6.1807,6.1827,0,0,0,0,0,6.0931,6.1059,6.103,6.1052,6.1156,6.1253,6.1266,6.1244,6.1181,6.1242,6.1251,6.1201,6.1399,6.1328,6.1351,6.1439,6.1639,6.1652,6.1665,6.1773,6.1802,6.1827,0,0,0,0,0,0,6.1037,6.1062,6.1031,6.1172,6.1211,6.1237,6.1313,6.1276,6.1334,6.1321,6.1292,6.1302,6.1432,6.1448,6.1368,6.1599,6.1509,6.1527,6.1583,6.1611,6.1632,6.1625,6.1271,0,0,0,0,0,6.1077,6.1153,6.1171,6.1294,6.1315,6.1312,6.1353,6.1333,6.1372,6.1388,6.1405,6.1446,6.1517,6.1565,6.1631,6.1786,6.1793,6.1858,6.188,6.1898,6.1914,6.1998,6.2028,6.1716,6.1716,6.1716,0,0,6.116,6.1183,6.1233,6.1316,6.1344,6.1424,6.1326,6.1414,6.1473,6.1402,6.1518,6.1532,6.1576,6.1716,6.1778,6.1733,6.2002,6.1915,6.1929,6.1936,6.2015,6.2045,6.2071,6.1725,6.1724,6.1722,0,0,6.1352,6.1377,6.1483,6.1513,6.1557,6.1554,6.158,6.1612,6.1619,6.1735,6.1683,6.1754,6.1878,6.1911,6.1945,6.2153,6.211,6.2176,6.2291,6.2373,6.2398,6.2419,6.2494,6.2521,6.2192,6.2192,6.2193,0,6.145,6.1568,6.1542,6.1635,6.1674,6.1613,6.1721,6.1752,6.1815,6.1844,6.1793,6.1948,6.1973,6.212,6.2171,6.22,6.2229,6.217,6.2396,6.2418,6.2437,6.2508,6.2537,6.22,6.2199,6.2198,6.2198,0,6.1686,6.1769,6.1849,6.1912,6.196,6.206,6.2051,6.2103,6.208,6.2083,6.2203,6.2232,6.2303,6.2337,6.2315,6.2482,6.2453,6.24,6.2309,6.2475,6.2541,6.2568,6.2211,6.2208,6.2206,6.2204,0,0,6.1946,6.1995,6.2025,6.2053,6.2098,6.2162,6.226,6.233,6.2375,6.2422,6.2504,6.2611,6.2563,6.2601,6.2583,6.2656,6.282,6.2593,6.2594,6.2635,6.3006,6.3046,6.3078,6.2792,6.2797,6.2801,6.3003,0,6.2139,6.2308,6.2289,6.2451,6.2528,6.2473,6.2558,6.2596,6.2602,6.2669,6.2676,6.2753,6.2683,6.2705,6.2775,6.2785,6.2894,6.277,6.2869,6.2873,6.2859,6.3112,6.3154,6.3342,6.3028,6.3033,6.3036,0,6.2386,6.2442,6.2612,6.2646,6.2678,6.2755,6.2818,6.2883,6.2925,6.2925,6.2969,6.2939,6.3039,6.2947,6.3085,6.3001,6.3041,6.3053,6.306,6.3067,6.2964,6.3127,6.3402,6.343,6.3077,6.3073,6.307,0,6.2559,6.2677,6.2793,6.282,6.2863,6.2919,6.2939,6.2976,6.302,6.3077,6.3105,6.3173,6.321,6.3263,6.3253,6.3187,6.3395,6.3301,6.3398,6.3398,6.3443,6.344,6.3728,6.347,6.3469,6.3469,6.3468,0,6.2777,6.2883,6.2872,6.2944,6.3061,6.304,6.3157,6.3171,6.3205,6.328,6.3237,6.3308,6.329,6.3361,6.3354,6.347,6.3487,6.349,6.3487,6.3494,6.3494,6.3519,6.3505,6.3476,6.3475,6.3473,6.3472,0,6.2989,6.2986,6.311,6.3141,6.3152,6.3237,6.3264,6.3333,6.3336,6.3431,6.3453,6.3458,6.354,6.3535,6.3628,6.3623,6.3766,6.3748,6.3752,6.3748,6.3844,6.3836,6.4158,6.42,6.3915,6.3918,6.392,0,6.3127,6.3208,6.3248,6.3295,6.332,6.3395,6.344,6.3423,6.3472,6.3527,6.359,6.3667,6.3728,6.3862,6.3875,6.3946,6.3929,6.4037,6.3939,6.3944,6.3931,6.3926,6.3934,6.4056,6.4059,6.4062,6.4064,0,6.3374,6.3369,6.3435,6.3502,6.3557,6.3608,6.3655,6.3696,6.3684,6.3741,6.3824,6.3872,6.3966,6.4044,6.4113,6.4135,6.4099,6.4095,6.4121,6.4129,6.4128,6.413,6.3804,6.4087,6.4085,6.4083,6.4082,6.4081,6.3554,6.3623,6.3663,6.3739,6.3772,6.3818,6.3884,6.3896,6.3965,6.404,6.4026,6.412,6.4162,6.425,6.4279,6.4353,6.4314,6.4352,6.4361,6.4371,6.4382,6.4117,6.4365,6.4364,6.4364,6.4363,6.4363,0,6.3799,6.3822,6.3892,6.3959,6.4019,6.3979,6.403,6.4083,6.4165,6.4208,6.4269,6.4365,6.4441,6.4461,6.4535,6.459,6.4575,6.461,6.4605,6.4612,6.4412,6.4382,6.4621,6.4621,6.4621,6.4621,6.4621,6.4621,6.3933,6.4048,6.4049,6.4181,6.4204,6.4294,6.4327,6.4369,6.4403,6.4512,6.4575,6.4587,6.4621,6.4697,6.4766,6.477,6.4799,6.4841,6.4838,6.4651,6.4625,6.4601,6.4572,6.4847,6.4848,6.5032,6.5034,6.5035]},{"header":{"parameterUnit":"m.s-1","parameterCategory":1,"la1":30.2991,"la2":30.254,"lo1":-89.0895,"lo2":-89.0444,"dy":0.0017,"dx":0.0017,"nx":28,"ny":28,"refTime":"2024-06-27T03:00:00:Z","depth":0,"parameterNumber":3,"parameterNumberName":"V-component_of_WINDS"},"data":[0,0,0,0,0,0,0,0,0,0,0,0,0,0,0,0,0,0,0,0,0,0,0,0,0,0,0,0,0,0,0,0,0,0,0,0,0,0,0,0,0,0,0,0,0,0,0,0,0,0,0,0,0,0,0,0,0,0,0.5624,0.5625,0,0.5646,0.5646,0.5646,0.5641,0.5641,0.5641,0.564,0.566,0.5661,0.5662,0,0,0,0,0,0,0,0,0,0,0,0,0,0.5577,0.5578,0.5624,0.5625,0.5625,0.5646,0.5646,0.5646,0.5642,0.5641,0.5641,0.564,0.566,0.5661,0.5662,0,0,0,0,0,0,0,0,0,0,0,0,0,0.5598,0.5578,0.5624,0.5625,0.5625,0.5646,0.5646,0.5646,0.5642,0.5641,0.564,0.564,0.5659,0.5661,0.5662,0.5682,0,0,0.5666,0.5667,0,0,0,0,0,0,0,0,0.5596,0.5599,0.5625,0.5625,0.5625,0.564,0.5637,0.5658,0.5642,0.5635,0.564,0.564,0.5654,0.5656,0.5661,0.5683,0.5684,0.5666,0.5667,0.5668,0.5668,0,0,0,0,0,0,0,0.5595,0.5598,0.5633,0.5625,0.5625,0.5623,0.5626,0.5641,0.5648,0.5636,0.5636,0.5638,0.5654,0.566,0.5661,0.5685,0.5666,0.5668,0.5668,0.5669,0.5724,0.5725,0,0,0,0,0,0,0.5594,0.5597,0.5632,0.5633,0.5609,0.5625,0.5627,0.5636,0.5648,0.5649,0.5639,0.5638,0.5658,0.566,0.5662,0.5686,0.5668,0.5669,0.567,0.5724,0.5724,0.5725,0,0,0,0,0,0,0.5593,0.5597,0.5631,0.5615,0.562,0.5626,0.5636,0.5637,0.5643,0.565,0.5651,0.5644,0.5657,0.566,0.5677,0.5687,0.567,0.5671,0.5723,0.5724,0.5725,0.5736,0,0,0,0,0,0,0.5591,0.5596,0.5605,0.5616,0.562,0.5647,0.5637,0.5638,0.5645,0.5644,0.5654,0.5655,0.5657,0.5675,0.5679,0.5689,0.5672,0.5722,0.5723,0.5724,0.5734,0.5737,0.5739,0,0,0,0,0,0.559,0.5607,0.5605,0.561,0.5631,0.5648,0.565,0.5652,0.5646,0.5654,0.5659,0.5655,0.5685,0.5677,0.5681,0.5691,0.5721,0.5723,0.5724,0.5733,0.5736,0.5739,0,0,0,0,0,0,0.5596,0.5608,0.5607,0.5628,0.5637,0.5647,0.5657,0.5656,0.5666,0.5665,0.5666,0.5668,0.5686,0.569,0.5681,0.5711,0.5702,0.5705,0.5708,0.5711,0.5713,0.5712,0.5673,0,0,0,0,0,0.56,0.5613,0.5623,0.564,0.5645,0.565,0.5658,0.5658,0.5667,0.5671,0.5677,0.5685,0.5696,0.5704,0.5715,0.5735,0.5737,0.5744,0.5746,0.5748,0.575,0.576,0.5764,0.573,0.573,0.573,0,0,0.5608,0.5616,0.5625,0.5642,0.5649,0.5662,0.5654,0.5668,0.5677,0.5673,0.569,0.5694,0.5703,0.5722,0.5731,0.5727,0.5759,0.575,0.5751,0.5752,0.5762,0.5765,0.5768,0.5731,0.5731,0.5731,0,0,0.563,0.5638,0.5653,0.5661,0.5672,0.5675,0.5679,0.5689,0.5692,0.5709,0.5706,0.5717,0.5737,0.5743,0.5749,0.5773,0.577,0.5776,0.5788,0.5799,0.5801,0.5804,0.5812,0.5815,0.5778,0.5778,0.5778,0,0.5639,0.5659,0.5661,0.5676,0.5683,0.5681,0.5696,0.5703,0.5716,0.5721,0.5716,0.5741,0.5747,0.5767,0.5773,0.5778,0.5782,0.5775,0.5801,0.5803,0.5805,0.5813,0.5817,0.5779,0.5779,0.5779,0.5779,0,0.5669,0.5683,0.5694,0.5708,0.5716,0.5731,0.5735,0.5743,0.5743,0.5747,0.5764,0.5771,0.5783,0.5788,0.5788,0.5808,0.5805,0.5801,0.5792,0.5809,0.5817,0.582,0.578,0.578,0.578,0.5779,0,0,0.5695,0.5711,0.5715,0.5721,0.5733,0.5743,0.5757,0.577,0.5777,0.5786,0.5798,0.5814,0.581,0.5817,0.5817,0.5827,0.5845,0.5821,0.5821,0.5825,0.5867,0.5871,0.5874,0.5843,0.5843,0.5844,0.5866,0,0.5718,0.5744,0.5747,0.577,0.5782,0.578,0.5792,0.58,0.5804,0.5815,0.5818,0.583,0.5824,0.5828,0.5837,0.5841,0.5853,0.5839,0.5853,0.5854,0.5851,0.5878,0.5882,0.5903,0.5869,0.587,0.587,0,0.5748,0.5759,0.5783,0.5793,0.5799,0.581,0.5822,0.5832,0.5841,0.5843,0.585,0.585,0.5863,0.5854,0.5873,0.5863,0.5869,0.5871,0.5872,0.5874,0.5863,0.588,0.5909,0.5913,0.5875,0.5874,0.5874,0,0.5764,0.5785,0.5803,0.5808,0.582,0.5828,0.5833,0.5842,0.5849,0.5859,0.5864,0.5875,0.5881,0.5889,0.5891,0.5884,0.5909,0.59,0.5911,0.5911,0.5917,0.5916,0.5947,0.592,0.592,0.592,0.592,0,0.5789,0.5804,0.581,0.5821,0.5838,0.584,0.5856,0.5861,0.5868,0.5879,0.5878,0.5888,0.589,0.59,0.5901,0.5917,0.5919,0.5921,0.5921,0.5921,0.5921,0.5925,0.5923,0.5921,0.5921,0.5921,0.5921,0,0.581,0.5815,0.5834,0.5844,0.5847,0.5859,0.5867,0.5877,0.5881,0.5894,0.5898,0.5903,0.5915,0.5918,0.5932,0.5933,0.5951,0.595,0.5948,0.5948,0.5959,0.5958,0.5993,0.5998,0.5968,0.5968,0.5969,0,0.5826,0.5838,0.5849,0.5857,0.5863,0.5875,0.5883,0.5886,0.5893,0.5904,0.5913,0.5925,0.5935,0.5954,0.5958,0.5969,0.5968,0.598,0.5969,0.5969,0.5968,0.5967,0.5968,0.5982,0.5982,0.5982,0.5982,0,0.5853,0.5855,0.5866,0.5879,0.5888,0.5898,0.5907,0.5913,0.5917,0.5926,0.5939,0.5946,0.5961,0.5973,0.5984,0.5988,0.5986,0.5986,0.5989,0.5989,0.5987,0.5988,0.5953,0.5985,0.5985,0.5984,0.5984,0.5984,0.5872,0.5882,0.5892,0.5905,0.5912,0.5921,0.5931,0.5936,0.5947,0.596,0.596,0.5974,0.5982,0.5996,0.6002,0.6012,0.6008,0.6012,0.6014,0.6015,0.6016,0.5986,0.6014,0.6014,0.6014,0.6013,0.6013,0,0.5898,0.5905,0.5917,0.593,0.594,0.5938,0.5948,0.5956,0.5969,0.5977,0.5987,0.6001,0.6013,0.6018,0.6029,0.6036,0.6036,0.6039,0.6039,0.604,0.6018,0.6015,0.604,0.604,0.604,0.604,0.604,0.604,0.5913,0.5931,0.5934,0.5954,0.596,0.5975,0.598,0.5988,0.5995,0.6011,0.6021,0.6025,0.6032,0.6044,0.6054,0.6055,0.6059,0.6063,0.6064,0.6044,0.6041,0.6039,0.6035,0.6064,0.6064,0.6084,0.6084,0.6084]}]]